User: anonymous
Location: Fremont
(37.5480°N, 121.9880°W)
Time: 10:26:34
(UTC-07:00)
Language:

Cosmos 1844 Rocket - Orbit

View from above orbital plane
View from above orbital plane
View from above satellite
View from above satellite

Ground track
Ground track

The orbit data is extracted from the following two-line orbital elements,

1 17974U 87041B   14202.83561553  .00000190  00000-0  11795-3 0  1609
2 17974 071.0104 345.8370 0015043 221.4823 244.8850 14.17103413406318
Epoch (UTC): 21 July 2014 20:03:17
Eccentricity: 0.0015043
inclination: 71.0104°
perigee height: 824 km
apogee height: 846 km
right ascension of ascending node: 345.8370°
argument of perigee: 221.4823°
revolutions per day: 14.17103413
mean anomaly at epoch: 244.8850°
orbit number at epoch: 40631

The dashed part of the orbit path shows where the satellite is in the earth's shadow,  

DLR